| time (UTC) | temp F | wind direction | speed knots | gust knots | rain 1hr in | rain 24hr in | rain mn in | humidity % | barometer mb |
| 20260502130104 | 51 | 269 | 0.0 | 2.6 | 0.00 | 0.02 | 0.02 | 92 | 1016.2 |
| 20260502123111 | 51 | 269 | 0.0 | 0.0 | 0.00 | 0.02 | 0.02 | 92 | 1016.2 |
| 20260502121548 | 50 | 269 | 0.9 | 5.2 | 0.00 | 0.02 | 0.02 | 92 | 1016.2 |
| 20260502114556 | 51 | 265 | 1.7 | 5.2 | 0.00 | 0.02 | 0.02 | 92 | 1016.2 |
| 20260502113046 | 51 | 0 | 0.0 | 5.2 | 0.00 | 0.02 | 0.02 | 92 | 1015.9 |
| 20260502111545 | 51 | 284 | 1.7 | 5.2 | 0.00 | 0.02 | 0.02 | 92 | 1015.9 |
| 20260502110051 | 51 | 284 | 0.9 | 4.3 | 0.00 | 0.02 | 0.02 | 92 | 1016.1 |
| 20260502104547 | 51 | 254 | 1.7 | 5.2 | 0.00 | 0.02 | 0.02 | 92 | 1016.0 |
| 20260502103048 | 51 | 0 | 0.0 | 0.0 | 0.00 | 0.02 | 0.02 | 92 | 1016.1 |
| 20260502101555 | 51 | 0 | 0.9 | 4.3 | 0.00 | 0.02 | 0.02 | 92 | 1015.7 |
| 20260502070041 | 54 | 292 | 2.6 | 7.8 | 0.00 | 0.00 | 0.00 | 79 | 1017.0 |
| 20260502064547 | 55 | 306 | 0.9 | 7.0 | 0.00 | 0.00 | 0.00 | 78 | 1016.9 |
| 20260502063055 | 56 | 319 | 1.7 | 6.1 | 0.00 | 0.00 | 0.00 | 77 | 1016.9 |
| 20260502061544 | 56 | 324 | 2.6 | 5.2 | 0.00 | 0.00 | 0.00 | 76 | 1017.1 |
| 20260502060045 | 57 | 324 | 1.7 | 4.3 | 0.00 | 0.00 | 0.00 | 75 | 1016.8 |
| 20260502054542 | 57 | 318 | 0.9 | 5.2 | 0.00 | 0.00 | 0.00 | 74 | 1016.6 |
| 20260502053048 | 58 | 321 | 0.9 | 7.8 | 0.00 | 0.00 | 0.00 | 73 | 1017.0 |
| 20260502051544 | 58 | 340 | 1.7 | 9.6 | 0.00 | 0.00 | 0.00 | 72 | 1016.5 |
| 20260502050047 | 59 | 306 | 6.1 | 12.2 | 0.00 | 0.00 | 0.00 | 71 | 1016.4 |
| 20260502044548 | 60 | 328 | 4.3 | 13.9 | 0.00 | 0.00 | 0.00 | 70 | 1016.1 |
| 20260502043046 | 61 | 325 | 1.7 | 10.4 | 0.00 | 0.00 | 0.00 | 69 | 1016.2 |
| 20260502041547 | 62 | 287 | 4.3 | 11.3 | 0.00 | 0.00 | 0.00 | 68 | 1015.8 |
| 20260502040047 | 63 | 294 | 7.8 | 15.6 | 0.00 | 0.00 | 0.00 | 66 | 1015.5 |
| 20260502034548 | 64 | 285 | 4.3 | 13.0 | 0.00 | 0.00 | 0.00 | 65 | 1015.3 |
| 20260502033048 | 65 | 308 | 6.1 | 11.3 | 0.00 | 0.00 | 0.00 | 63 | 1015.1 |
| 20260502031546 | 67 | 288 | 6.1 | 11.3 | 0.00 | 0.00 | 0.00 | 62 | 1014.9 |
| 20260502030042 | 68 | 329 | 3.5 | 9.6 | 0.00 | 0.00 | 0.00 | 60 | 1014.6 |
| 20260502024550 | 69 | 348 | 1.7 | 7.8 | 0.00 | 0.00 | 0.00 | 56 | 1014.3 |
| 20260502023045 | 70 | 0 | 0.9 | 5.2 | 0.00 | 0.00 | 0.00 | 52 | 1014.2 |
| 20260502021544 | 71 | 14 | 0.0 | 4.3 | 0.00 | 0.00 | 0.00 | 51 | 1014.1 |
| 20260502020050 | 72 | 5 | 0.9 | 9.6 | 0.00 | 0.00 | 0.00 | 51 | 1014.1 |
| 20260502014543 | 73 | 330 | 3.5 | 9.6 | 0.00 | 0.00 | 0.00 | 52 | 1014.0 |
| 20260502013049 | 74 | 338 | 6.1 | 9.6 | 0.00 | 0.00 | 0.00 | 51 | 1013.9 |
| 20260502011546 | 75 | 323 | 5.2 | 10.4 | 0.00 | 0.00 | 0.00 | 51 | 1013.8 |
| 20260502010052 | 76 | 321 | 2.6 | 10.4 | 0.00 | 0.00 | 0.00 | 47 | 1013.8 |
| 20260502004555 | 77 | 271 | 3.5 | 7.0 | 0.00 | 0.00 | 0.00 | 42 | 1013.8 |
| 20260502003043 | 77 | 292 | 4.3 | 9.6 | 0.00 | 0.00 | 0.00 | 42 | 1013.7 |
| 20260502001543 | 77 | 266 | 3.5 | 8.7 | 0.00 | 0.00 | 0.00 | 42 | 1013.7 |
| 20260502000041 | 77 | 281 | 4.3 | 7.8 | 0.00 | 0.00 | 0.00 | 43 | 1013.8 |
| 20260501234544 | 76 | 323 | 1.7 | 7.0 | 0.00 | 0.00 | 0.00 | 44 | 1013.7 |
| 20260501233047 | 76 | 249 | 4.3 | 8.7 | 0.00 | 0.00 | 0.00 | 46 | 1013.8 |
| 20260501231544 | 75 | 294 | 2.6 | 7.0 | 0.00 | 0.00 | 0.00 | 46 | 1014.0 |
| 20260501230043 | 75 | 298 | 0.0 | 7.8 | 0.00 | 0.00 | 0.00 | 47 | 1014.1 |
| 20260501224547 | 74 | 5 | 1.7 | 4.3 | 0.00 | 0.00 | 0.00 | 48 | 1014.5 |
| 20260501223050 | 75 | 336 | 1.7 | 7.8 | 0.00 | 0.00 | 0.00 | 52 | 1014.7 |
| 20260501221544 | 74 | 5 | 0.9 | 4.3 | 0.00 | 0.00 | 0.00 | 47 | 1014.8 |
| 20260501220052 | 74 | 15 | 0.0 | 4.3 | 0.00 | 0.00 | 0.00 | 53 | 1015.1 |
| 20260501214542 | 74 | 301 | 0.0 | 2.6 | 0.00 | 0.00 | 0.00 | 54 | 1015.3 |
| 20260501213048 | 74 | 301 | 3.5 | 8.7 | 0.00 | 0.00 | 0.00 | 47 | 1015.5 |
| 20260501211542 | 73 | 338 | 1.7 | 7.0 | 0.00 | 0.00 | 0.00 | 51 | 1015.5 |
| 20260501210059 | 73 | 344 | 0.0 | 7.8 | 0.00 | 0.00 | 0.00 | 54 | 1015.6 |
| 20260501204548 | 73 | 317 | 3.5 | 7.8 | 0.00 | 0.00 | 0.00 | 54 | 1015.9 |
| 20260501203044 | 72 | 342 | 4.3 | 7.8 | 0.00 | 0.00 | 0.00 | 56 | 1015.9 |
| 20260501201543 | 70 | 13 | 2.6 | 6.1 | 0.00 | 0.00 | 0.00 | 56 | 1015.9 |
| 20260501200041 | 70 | 0 | 0.0 | 7.0 | 0.00 | 0.00 | 0.00 | 58 | 1016.1 |
| 20260501194543 | 69 | 311 | 2.6 | 7.0 | 0.00 | 0.00 | 0.00 | 59 | 1016.3 |
| 20260501193036 | 69 | 0 | 0.0 | 7.0 | 0.00 | 0.00 | 0.00 | 56 | 1016.3 |
| 20260501191543 | 69 | 0 | 1.7 | 5.2 | 0.00 | 0.00 | 0.00 | 60 | 1016.5 |
| 20260501190056 | 68 | 360 | 1.7 | 7.8 | 0.00 | 0.00 | 0.00 | 63 | 1016.7 |
| 20260501184547 | 67 | 0 | 0.0 | 0.9 | 0.00 | 0.00 | 0.00 | 62 | 1016.7 |
| 20260501183043 | 66 | 0 | 1.7 | 4.3 | 0.00 | 0.00 | 0.00 | 64 | 1016.7 |
| 20260501181545 | 65 | 0 | 0.0 | 2.6 | 0.00 | 0.00 | 0.00 | 63 | 1016.8 |
| 20260501180104 | 65 | 0 | 0.0 | 1.7 | 0.00 | 0.00 | 0.00 | 63 | 1016.9 |
| 20260501174546 | 65 | 0 | 0.0 | 3.5 | 0.00 | 0.00 | 0.00 | 66 | 1016.9 |
| 20260501173043 | 63 | 352 | 1.7 | 4.3 | 0.00 | 0.00 | 0.00 | 68 | 1017.0 |
| 20260501171544 | 62 | 0 | 0.0 | 3.5 | 0.00 | 0.00 | 0.00 | 71 | 1017.1 |
| 20260501170052 | 61 | 0 | 0.0 | 1.7 | 0.00 | 0.00 | 0.00 | 74 | 1017.1 |
| 20260501164544 | 60 | 0 | 0.9 | 2.6 | 0.00 | 0.00 | 0.00 | 75 | 1017.2 |
| 20260501163046 | 58 | 315 | 0.9 | 4.3 | 0.00 | 0.00 | 0.00 | 78 | 1017.4 |
| 20260501161543 | 56 | 0 | 0.0 | 2.6 | 0.00 | 0.00 | 0.00 | 84 | 1017.3 |
| 20260501160046 | 54 | 0 | 0.0 | 0.0 | 0.00 | 0.00 | 0.00 | 88 | 1017.5 |
| 20260501154544 | 51 | 0 | 0.0 | 0.0 | 0.00 | 0.00 | 0.00 | 92 | 1017.5 |
| 20260501153047 | 50 | 0 | 0.0 | 0.0 | 0.00 | 0.00 | 0.00 | 92 | 1017.5 |
| 20260501151553 | 49 | 0 | 0.0 | 0.0 | 0.00 | 0.00 | 0.00 | 92 | 1017.4 |
| 20260501150053 | 48 | 0 | 0.0 | 0.0 | 0.00 | 0.00 | 0.00 | 92 | 1017.4 |